This demonstration page uses our WeatherBlox Daily Observations layout. Learn more.

Left ArrowRight Arrow

Hourly Observations for September 7, 2020

Temp ( °F °C ) Dew Point ( °F °C ) Humidity (%) Winds ( mph kmh ) Pressure ( in mb ) Visibility ( mi km ) Precip ( " mm )
12:15 am 00:15 Clear 66 19.1 54 12.1 64 64 NE 9 15 29.86 1011 10 16 N/A
12:35 am 00:35 Clear 64 17.6 54 12.1 70 70 NE 7 11 29.86 1011 10 16 N/A
12:55 am 00:55 Clear 64 17.8 54 12.1 69 69 NNE 8 13 29.88 1012 10 16 N/A
1:15 am 01:15 Clear 62 16.5 54 12.2 76 76 N 8 13 29.89 1012 10 16 N/A
1:35 am 01:35 Clear 61 16 54 12.2 78 78 N 6 9 29.90 1013 10 16 N/A
1:55 am 01:55 Clear 61 16.1 54 12.1 77 77 N 6 9 29.91 1013 10 16 N/A
2:15 am 02:15 Clear 60 15.6 54 12.1 80 80 N 3 6 29.92 1013 10 16 N/A
2:35 am 02:35 Clear 59 15.1 54 12 82 82 N 6 9 29.93 1013 10 16 N/A
2:55 am 02:55 Clear 58 14.2 54 12 87 87 NNE 7 11 29.93 1013 10 16 N/A
3:15 am 03:15 Clear 58 14.7 54 12 84 84 NNE 9 15 29.93 1014 10 16 N/A
3:35 am 03:35 Clear 59 15.1 53 11.9 81 81 NE 10 17 29.93 1013 10 16 N/A
3:55 am 03:55 Clear 59 15 53 11.8 81 81 NE 9 15 29.92 1013 10 16 N/A
4:15 am 04:15 Clear 59 15 53 11.7 81 81 NE 9 15 29.92 1013 10 16 N/A
4:35 am 04:35 Clear 60 15.3 53 11.5 78 78 NE 9 15 29.92 1013 10 16 N/A
4:55 am 04:55 Clear 59 15 52 11.2 78 78 NE 9 15 29.91 1013 10 16 N/A
5:15 am 05:15 Clear 58 14.6 52 11.2 80 80 NE 12 19 29.89 1012 10 16 N/A
5:35 am 05:35 Clear 58 14.6 52 11.1 80 80 ENE 13 20 29.88 1012 10 16 N/A
5:55 am 05:55 Clear 58 14.6 52 11 79 79 NNE 5 7 29.89 1012 10 16 N/A
6:15 am 06:15 Clear 57 14 52 11 82 82 NNE 7 11 29.90 1012 10 16 N/A
6:35 am 06:35 Clear 56 13.5 51 10.8 84 84 NE 3 6 29.89 1012 10 16 N/A
6:55 am 06:55 Clear 56 13.1 51 10.6 85 85 NE 5 7 29.90 1012 10 16 N/A
7:15 am 07:15 Sunny 54 12.2 51 10.4 89 89 NE 8 13 29.91 1013 10 16 N/A
7:35 am 07:35 Sunny 54 12.4 51 10.6 89 89 NE 7 11 29.91 1013 10 16 N/A
7:55 am 07:55 Sunny 55 12.7 52 11 89 89 NNE 6 9 29.93 1014 10 16 N/A
8:15 am 08:15 Sunny 56 13.4 53 11.4 88 88 NE 7 11 29.91 1013 10 16 N/A
8:35 am 08:35 Sunny 58 14.3 53 11.5 83 83 NE 12 19 29.90 1012 10 16 N/A
8:55 am 08:55 Sunny 59 15 53 11.4 79 79 ENE 10 17 29.88 1012 10 16 N/A
9:15 am 09:15 Sunny 60 15.6 52 11.2 75 75 ENE 14 22 29.87 1012 10 16 N/A
9:35 am 09:35 Sunny 62 16.5 52 10.9 70 70 ENE 15 24 29.85 1011 10 16 N/A
9:55 am 09:55 Sunny 63 17.2 51 10.8 66 66 E 16 26 29.82 1010 10 16 N/A
10:15 am 10:15 Sunny 64 18 50 10 60 60 E 17 28 29.81 1010 10 16 N/A
10:35 am 10:35 Sunny 65 18.5 50 10 58 58 E 16 26 29.81 1009 10 16 N/A
10:55 am 10:55 Sunny 67 19.4 50 9.9 54 54 ENE 14 22 29.80 1009 10 16 N/A
11:15 am 11:15 Sunny 68 19.8 50 10 53 53 ENE 15 24 29.79 1009 10 16 N/A
11:35 am 11:35 Sunny 69 20.6 49 9.4 49 49 E 14 22 29.77 1008 10 16 N/A
11:55 am 11:55 Sunny 70 21 48 9 46 46 ENE 13 20 29.77 1008 10 16 N/A
12:15 pm 12:15 Sunny 71 21.5 49 9.3 46 46 NNE 13 20 29.77 1008 10 16 N/A
12:35 pm 12:35 Sunny 71 21.6 49 9.2 45 45 NE 10 17 29.76 1008 10 16 N/A
12:55 pm 12:55 Sunny 72 22.1 49 9.4 44 44 NE 13 20 29.76 1008 10 16 N/A
1:15 pm 13:15 Sunny 72 22.4 48 9.1 43 43 ENE 12 19 29.74 1007 10 16 N/A
1:35 pm 13:35 Sunny 73 23 48 8.7 40 40 E 12 19 29.72 1007 10 16 N/A
1:55 pm 13:55 Partly Cloudy 74 23.3 48 9 40 40 NE 9 15 29.71 1006 10 16 N/A
2:15 pm 14:15 Partly Cloudy 74 23.5 48 8.9 39 39 ENE 13 20 29.69 1005 10 16 N/A
2:35 pm 14:35 Sunny 75 23.7 48 8.9 39 39 NE 15 24 29.68 1005 10 16 N/A
2:55 pm 14:55 Sunny 75 24 48 9 39 39 ENE 13 20 29.68 1005 10 16 N/A
3:15 pm 15:15 Sunny 75 23.7 48 9 39 39 ENE 14 22 29.67 1005 10 16 N/A
3:35 pm 15:35 Sunny 75 23.9 49 9.6 40 40 E 15 24 29.66 1004 10 16 N/A
3:55 pm 15:55 Sunny 74 23.6 49 9.6 41 41 ENE 17 28 29.66 1004 10 16 N/A
4:15 pm 16:15 Sunny 75 23.7 50 10 42 42 E 15 24 29.67 1005 10 16 N/A
4:35 pm 16:35 Sunny 74 23.5 50 10.2 43 43 ENE 17 28 29.68 1005 10 16 N/A
4:55 pm 16:55 Sunny 73 22.7 50 10.1 45 45 NE 20 31 29.69 1005 10 16 N/A
5:15 pm 17:15 Sunny 72 22.1 50 9.9 46 46 NE 15 24 29.70 1006 10 16 N/A
5:35 pm 17:35 Sunny 71 21.5 49 9.7 47 47 NE 17 28 29.72 1006 10 16 N/A
5:55 pm 17:55 Sunny 69 20.8 48 9.1 47 47 NE 17 28 29.73 1007 10 16 N/A
6:15 pm 18:15 Sunny 68 20 48 8.8 49 49 NE 20 31 29.76 1008 10 16 N/A
6:35 pm 18:35 Sunny 67 19.4 46 8 48 48 NE 17 28 29.76 1008 10 16 N/A
6:55 pm 18:55 Mostly Cloudy 66 19 46 7.5 47 47 NE 21 33 29.79 1009 10 16 N/A
7:15 pm 19:15 Cloudy 66 18.8 45 7 46 46 NE 14 22 29.79 1009 10 16 N/A
7:35 pm 19:35 Cloudy 65 18.5 45 7.3 48 48 NE 17 28 29.79 1009 10 16 N/A
7:55 pm 19:55 Cloudy 65 18.2 45 7.2 49 49 NE 21 33 29.80 1009 10 16 N/A
8:15 pm 20:15 Cloudy 64 18 45 7 49 49 NE 22 35 29.81 1010 10 16 N/A
8:35 pm 20:35 Cloudy 64 17.8 43 6.3 47 47 NE 22 35 29.84 1010 10 16 N/A
8:55 pm 20:55 Cloudy 63 17.4 43 6.1 48 48 NE 20 31 29.84 1010 10 16 N/A
9:15 pm 21:15 Partly Cloudy 62 16.6 43 6 50 50 NNE 25 41 29.87 1011 10 16 N/A
9:35 pm 21:35 Mostly Cloudy 61 15.9 43 6.1 52 52 NE 23 37 29.88 1012 10 16 N/A
9:55 pm 21:55 Cloudy 60 15.3 42 5.7 53 53 NNE 26 43 29.90 1012 10 16 N/A
10:15 pm 22:15 Cloudy 56 13.2 44 6.5 64 64 NNE 22 35 29.93 1014 10 16 N/A
10:35 pm 22:35 Cloudy 55 12.7 44 6.6 67 67 NNE 25 41 29.95 1014 10 16 N/A
10:55 pm 22:55 Cloudy 55 12.7 43 6.3 65 65 NNE 25 41 29.95 1014 10 16 N/A
11:15 pm 23:15 Cloudy 55 12.6 43 6.1 65 65 NE 23 37 29.94 1014 10 16 N/A
11:35 pm 23:35 Cloudy 55 12.6 43 6.1 65 65 NE 25 41 29.94 1014 10 16 N/A
11:55 pm 23:55 Cloudy 54 12.4 43 6 65 65 NE 30 48 29.94 1014 10 16 N/A

Powered by AerisWeather